�������l�o���
Date,Time,MP-1(��Sv/h),MP-2(��Sv/h),MP-3(��Sv/h),MP-4(��Sv/h),MP-5(��Sv/h),MP-6(��Sv/h),MP-7(��Sv/h),MP-8(��Sv/h),����,����(m/s),���J
2022/06/08,00:00,0.541,0.780,0.505,0.963,0.654,0.334,0.566,0.546,�k,5.5,��
2022/06/08,00:10,0.542,0.779,0.505,0.962,0.654,0.333,0.566,0.545,�k,5.9,��
2022/06/08,00:20,0.542,0.779,0.506,0.962,0.654,0.334,0.568,0.545,�k,3.9,��
2022/06/08,00:30,0.543,0.779,0.504,0.964,0.655,0.334,0.567,0.546,�k,4.8,��
2022/06/08,00:40,0.542,0.779,0.505,0.965,0.656,0.335,0.567,0.546,�k,5.0,��
2022/06/08,00:50,0.541,0.780,0.506,0.963,0.656,0.334,0.568,0.546,�k,4.7,��
2022/06/08,01:00,0.542,0.781,0.504,0.966,0.655,0.335,0.569,0.546,�k,5.1,��
2022/06/08,01:10,0.541,0.781,0.505,0.963,0.654,0.334,0.567,0.546,�k�k��,4.6,��
2022/06/08,01:20,0.541,0.781,0.506,0.966,0.654,0.334,0.569,0.546,�k�k��,4.1,��
2022/06/08,01:30,0.544,0.780,0.508,0.966,0.657,0.334,0.570,0.545,�k,3.8,��
2022/06/08,01:40,0.541,0.783,0.505,0.963,0.657,0.335,0.570,0.547,�k�k��,4.2,��
2022/06/08,01:50,0.544,0.783,0.505,0.965,0.659,0.334,0.569,0.545,�k�k��,4.0,��
2022/06/08,02:00,0.543,0.781,0.507,0.965,0.658,0.334,0.569,0.546,�k�k��,4.0,��
2022/06/08,02:10,0.543,0.782,0.506,0.963,0.658,0.334,0.569,0.546,�k�k��,3.8,�L
2022/06/08,02:20,0.543,0.783,0.506,0.965,0.658,0.334,0.568,0.545,�k�k��,3.9,��
2022/06/08,02:30,0.542,0.783,0.507,0.966,0.657,0.333,0.570,0.545,�k�k��,4.7,��
2022/06/08,02:40,0.545,0.783,0.507,0.966,0.660,0.335,0.570,0.546,�k�k��,4.9,�L
2022/06/08,02:50,0.543,0.782,0.503,0.964,0.658,0.334,0.569,0.547,�k,3.3,�L
2022/06/08,03:00,0.543,0.784,0.507,0.967,0.659,0.335,0.569,0.546,�k�k��,4.5,��
2022/06/08,03:10,0.543,0.785,0.505,0.967,0.657,0.334,0.569,0.546,�k�k��,4.0,��
2022/06/08,03:20,0.542,0.782,0.505,0.967,0.660,0.333,0.569,0.547,�k�k��,4.1,��
2022/06/08,03:30,0.543,0.784,0.506,0.969,0.659,0.335,0.572,0.544,�k�k��,3.9,��
2022/06/08,03:40,0.543,0.781,0.506,0.966,0.658,0.335,0.571,0.546,�k�k��,3.7,��
2022/06/08,03:50,0.545,0.784,0.506,0.968,0.660,0.334,0.570,0.546,�k�k��,3.1,��
2022/06/08,04:00,0.542,0.784,0.506,0.966,0.660,0.336,0.570,0.545,�k��,3.4,��
2022/06/08,04:10,0.545,0.783,0.506,0.966,0.659,0.335,0.569,0.547,�k�k��,3.0,��
2022/06/08,04:20,0.543,0.783,0.506,0.969,0.660,0.335,0.571,0.546,�k�k��,2.8,��
2022/06/08,04:30,0.544,0.785,0.506,0.967,0.660,0.335,0.571,0.546,�k�k��,2.5,��
2022/06/08,04:40,0.544,0.786,0.507,0.967,0.660,0.335,0.571,0.547,�k,2.6,��
2022/06/08,04:50,0.543,0.784,0.507,0.970,0.660,0.334,0.570,0.545,�k,2.6,��
2022/06/08,05:00,0.544,0.786,0.506,0.969,0.660,0.334,0.571,0.547,�k,2.6,��
2022/06/08,05:10,0.542,0.787,0.505,0.970,0.660,0.335,0.570,0.547,�k,2.0,��
2022/06/08,05:20,0.544,0.783,0.507,0.969,0.662,0.336,0.571,0.545,�k,2.2,�L
2022/06/08,05:30,0.543,0.785,0.506,0.967,0.660,0.336,0.571,0.546,�k,3.0,�L
2022/06/08,05:40,0.544,0.785,0.508,0.970,0.661,0.335,0.570,0.546,�k,3.5,��
2022/06/08,05:50,0.544,0.785,0.508,0.969,0.661,0.335,0.571,0.547,�k�k��,3.3,��
2022/06/08,06:00,0.544,0.786,0.506,0.969,0.662,0.335,0.572,0.547,�k,3.7,��
2022/06/08,06:10,0.544,0.786,0.506,0.970,0.661,0.336,0.571,0.546,�k,3.9,��
2022/06/08,06:20,0.544,0.785,0.507,0.968,0.660,0.334,0.572,0.546,�k,4.5,��
2022/06/08,06:30,0.544,0.785,0.507,0.970,0.662,0.334,0.571,0.547,�k,4.0,��
2022/06/08,06:40,0.544,0.786,0.506,0.969,0.662,0.336,0.571,0.546,�k,3.6,��
2022/06/08,06:50,0.543,0.786,0.506,0.971,0.661,0.334,0.571,0.547,�k�k��,4.0,��
2022/06/08,07:00,0.544,0.786,0.508,0.969,0.662,0.334,0.572,0.546,�k,2.8,��
2022/06/08,07:10,0.544,0.788,0.506,0.970,0.664,0.334,0.571,0.547,�k�k��,2.9,��
2022/06/08,07:20,0.545,0.787,0.509,0.967,0.664,0.334,0.572,0.547,�k,2.6,��
2022/06/08,07:30,0.545,0.788,0.508,0.971,0.662,0.335,0.570,0.547,�k�k��,3.3,��
2022/06/08,07:40,0.545,0.786,0.507,0.970,0.663,0.334,0.571,0.546,�k�k��,3.5,��
2022/06/08,07:50,0.545,0.787,0.507,0.970,0.662,0.333,0.571,0.547,�k�k��,3.5,��
2022/06/08,08:00,0.546,0.785,0.506,0.970,0.664,0.334,0.571,0.546,�k,3.2,��
2022/06/08,08:10,0.545,0.786,0.507,0.972,0.664,0.334,0.570,0.547,�k,3.8,��
2022/06/08,08:20,0.544,0.784,0.507,0.971,0.662,0.335,0.571,0.547,�k�k��,3.5,��
2022/06/08,08:30,0.546,0.787,0.506,0.970,0.662,0.335,0.571,0.548,�k,3.6,��
2022/06/08,08:40,0.545,0.786,0.508,0.973,0.663,0.336,0.570,0.546,�k,2.6,�L
2022/06/08,08:50,0.546,0.786,0.507,0.972,0.665,0.334,0.572,0.546,�k,2.9,��
2022/06/08,09:00,0.546,0.787,0.506,0.971,0.661,0.334,0.571,0.546,�k,2.9,�L
2022/06/08,09:10,0.545,0.784,0.509,0.971,0.663,0.335,0.571,0.546,�k,3.4,�L
2022/06/08,09:20,0.546,0.786,0.508,0.971,0.664,0.335,0.571,0.546,�k�k��,3.3,�L
2022/06/08,09:30,0.544,0.786,0.507,0.970,0.664,0.335,0.571,0.544,�k�k��,3.0,�L
2022/06/08,09:40,0.545,0.786,0.506,0.972,0.664,0.335,0.571,0.546,�k,3.1,�L
2022/06/08,09:50,0.546,0.787,0.507,0.972,0.663,0.335,0.570,0.544,�k,3.3,�L
2022/06/08,10:00,0.546,0.787,0.508,0.973,0.667,0.336,0.572,0.547,�k,3.9,�L
2022/06/08,10:10,0.546,0.788,0.507,0.973,0.664,0.335,0.571,0.548,�k,3.2,�L
2022/06/08,10:20,0.547,0.790,0.509,0.972,0.665,0.336,0.571,0.549,�k,3.1,�L
2022/06/08,10:30,0.545,0.787,0.508,0.972,0.666,0.336,0.571,0.546,�k,3.5,�L
2022/06/08,10:40,0.546,0.788,0.507,0.972,0.666,0.335,0.572,0.547,�k,3.6,�L
2022/06/08,10:50,0.545,0.789,0.509,0.973,0.665,0.334,0.572,0.548,�k�k��,2.6,��
2022/06/08,11:00,0.545,0.788,0.510,0.973,0.667,0.335,0.571,0.546,�k�k��,3.7,��
2022/06/08,11:10,0.547,0.786,0.508,0.971,0.665,0.335,0.573,0.546,�k,3.8,�L
2022/06/08,11:20,0.546,0.791,0.509,0.973,0.667,0.335,0.570,0.548,�k,3.6,��
2022/06/08,11:30,0.546,0.790,0.508,0.972,0.667,0.336,0.571,0.546,�k�k��,4.0,�L
2022/06/08,11:40,0.546,0.790,0.509,0.972,0.665,0.336,0.573,0.546,�k�k��,4.4,��
2022/06/08,11:50,0.546,0.789,0.510,0.975,0.666,0.336,0.572,0.548,�k�k��,4.1,�L
2022/06/08,12:00,0.546,0.793,0.510,0.974,0.666,0.334,0.573,0.548,�k,4.2,�L
2022/06/08,12:10,0.546,0.793,0.510,0.974,0.666,0.336,0.572,0.547,�k�k��,3.9,�L
2022/06/08,12:20,0.546,0.794,0.510,0.973,0.669,0.336,0.574,0.546,�k�k��,4.1,�L
2022/06/08,12:30,0.546,0.794,0.509,0.974,0.666,0.335,0.572,0.547,�k�k��,3.0,��
2022/06/08,12:40,0.547,0.793,0.511,0.975,0.666,0.337,0.572,0.547,�k,3.3,��
2022/06/08,12:50,0.546,0.792,0.510,0.973,0.667,0.337,0.572,0.547,�k�k��,3.2,�L
2022/06/08,13:00,0.545,0.792,0.510,0.974,0.668,0.334,0.573,0.546,�k�k��,3.4,��
2022/06/08,13:10,0.547,0.792,0.510,0.973,0.669,0.334,0.572,0.546,�k�k��,3.4,��
2022/06/08,13:20,0.546,0.793,0.511,0.973,0.668,0.336,0.573,0.547,�k,3.1,��
2022/06/08,13:30,0.547,0.792,0.510,0.974,0.670,0.336,0.573,0.547,�k�k��,2.6,��
2022/06/08,13:40,0.547,0.793,0.511,0.975,0.668,0.336,0.573,0.546,�k�k��,3.3,��
2022/06/08,13:50,0.547,0.792,0.510,0.975,0.669,0.336,0.573,0.547,�k,3.1,��
2022/06/08,14:00,0.548,0.793,0.511,0.975,0.669,0.336,0.572,0.547,�k�k��,3.0,��
2022/06/08,14:10,0.547,0.794,0.510,0.974,0.670,0.336,0.573,0.546,�k�k��,3.4,��
2022/06/08,14:20,0.547,0.794,0.511,0.975,0.669,0.335,0.574,0.547,�k�k��,4.0,�L
2022/06/08,14:30,0.544,0.796,0.512,0.975,0.670,0.336,0.574,0.547,�k�k��,3.3,��
2022/06/08,14:40,0.544,0.793,0.510,0.976,0.669,0.336,0.574,0.547,�k�k��,2.6,�L
2022/06/08,14:50,0.543,0.794,0.510,0.975,0.668,0.336,0.573,0.547,�k�k��,3.1,�L
2022/06/08,15:00,0.545,0.794,0.511,0.972,0.668,0.333,0.574,0.546,�k�k��,2.8,�L
2022/06/08,15:10,0.545,0.794,0.510,0.975,0.670,0.337,0.575,0.546,�k�k��,2.6,�L
2022/06/08,15:20,0.545,0.795,0.509,0.974,0.669,0.336,0.574,0.547,�k�k��,3.0,�L
2022/06/08,15:30,0.545,0.797,0.512,0.976,0.667,0.335,0.573,0.547,�k�k��,2.6,�L
2022/06/08,15:40,0.546,0.796,0.511,0.976,0.671,0.337,0.575,0.549,�k�k��,2.6,�L
2022/06/08,15:50,0.547,0.797,0.509,0.976,0.671,0.337,0.576,0.548,�k,2.3,�L
2022/06/08,16:00,0.545,0.797,0.509,0.974,0.670,0.337,0.573,0.549,�k,2.9,�L
2022/06/08,16:10,0.544,0.798,0.511,0.976,0.670,0.336,0.576,0.549,�k,3.5,�L
2022/06/08,16:20,0.545,0.796,0.511,0.975,0.672,0.337,0.575,0.549,�k,2.8,�L
2022/06/08,16:30,0.546,0.797,0.511,0.975,0.672,0.335,0.577,0.548,�k,2.6,�L
2022/06/08,16:40,0.544,0.797,0.510,0.974,0.673,0.337,0.575,0.548,�k,2.2,�L
2022/06/08,16:50,0.545,0.799,0.510,0.975,0.672,0.334,0.576,0.550,�k,2.3,�L
2022/06/08,17:00,0.546,0.799,0.510,0.975,0.674,0.337,0.577,0.548,�k�k��,2.9,��
2022/06/08,17:10,0.546,0.797,0.511,0.975,0.672,0.336,0.576,0.550,�k,3.0,�L
2022/06/08,17:20,0.545,0.798,0.510,0.976,0.671,0.337,0.575,0.549,�k�k��,3.0,�L
2022/06/08,17:30,0.547,0.799,0.510,0.977,0.673,0.335,0.574,0.550,�k�k��,3.2,�L
2022/06/08,17:40,0.547,0.797,0.512,0.977,0.672,0.335,0.575,0.548,�k�k��,2.8,�L
2022/06/08,17:50,0.548,0.800,0.508,0.978,0.672,0.336,0.576,0.549,�k�k��,3.3,�L
2022/06/08,18:00,0.549,0.799,0.512,0.976,0.672,0.337,0.576,0.548,�k�k��,3.0,�L
2022/06/08,18:10,0.548,0.797,0.510,0.976,0.672,0.336,0.575,0.549,�k�k��,3.3,�L
2022/06/08,18:20,0.547,0.797,0.510,0.977,0.672,0.336,0.574,0.549,�k�k��,3.1,�L
2022/06/08,18:30,0.547,0.797,0.509,0.977,0.672,0.336,0.577,0.550,�k�k��,3.4,�L
2022/06/08,18:40,0.548,0.798,0.510,0.979,0.672,0.337,0.575,0.549,�k�k��,3.4,�L
2022/06/08,18:50,0.549,0.800,0.512,0.977,0.672,0.336,0.574,0.548,�k�k��,2.8,�L
2022/06/08,19:00,0.546,0.798,0.510,0.977,0.671,0.338,0.575,0.549,�k�k��,3.1,�L
2022/06/08,19:10,0.549,0.799,0.509,0.975,0.673,0.336,0.575,0.547,�k�k��,3.1,�L
2022/06/08,19:20,0.548,0.795,0.511,0.978,0.673,0.337,0.575,0.548,�k�k��,2.9,�L
2022/06/08,19:30,0.546,0.795,0.510,0.975,0.671,0.338,0.575,0.549,�k�k��,3.0,�L
2022/06/08,19:40,0.547,0.794,0.508,0.973,0.669,0.337,0.573,0.548,�k�k��,2.3,�L
2022/06/08,19:50,0.546,0.791,0.508,0.972,0.668,0.337,0.573,0.548,�k�k��,3.3,�L
2022/06/08,20:00,0.545,0.791,0.506,0.975,0.669,0.337,0.574,0.546,�k�k��,3.6,�L
2022/06/08,20:10,0.545,0.791,0.507,0.973,0.669,0.336,0.573,0.546,�k�k��,3.5,�L
2022/06/08,20:20,0.542,0.791,0.510,0.972,0.669,0.335,0.571,0.546,�k,3.8,�L
2022/06/08,20:30,0.545,0.791,0.505,0.970,0.667,0.335,0.572,0.545,�k�k��,4.1,�L
2022/06/08,20:40,0.543,0.790,0.507,0.971,0.668,0.336,0.572,0.548,�k�k��,4.3,�L
2022/06/08,20:50,0.543,0.792,0.508,0.970,0.668,0.336,0.574,0.547,�k�k��,3.8,�L
2022/06/08,21:00,0.543,0.788,0.506,0.969,0.668,0.335,0.572,0.547,�k�k��,3.8,�L
2022/06/08,21:10,0.543,0.790,0.506,0.970,0.666,0.335,0.573,0.545,�k,4.2,�L
2022/06/08,21:20,0.541,0.789,0.506,0.970,0.669,0.336,0.573,0.545,�k�k��,4.1,�L
2022/06/08,21:30,0.542,0.790,0.505,0.969,0.665,0.335,0.570,0.546,�k�k��,3.2,�L
2022/06/08,21:40,0.542,0.788,0.506,0.969,0.668,0.335,0.572,0.547,�k�k��,3.3,�L
2022/06/08,21:50,0.542,0.790,0.506,0.971,0.667,0.334,0.572,0.546,�k�k��,3.4,�L
2022/06/08,22:00,0.540,0.790,0.505,0.968,0.666,0.335,0.571,0.546,�k�k��,3.8,�L
2022/06/08,22:10,0.542,0.789,0.505,0.968,0.666,0.335,0.571,0.546,�k,3.6,�L
2022/06/08,22:20,0.542,0.790,0.506,0.970,0.668,0.335,0.572,0.547,�k�k��,4.3,�L
2022/06/08,22:30,0.541,0.789,0.505,0.970,0.666,0.335,0.571,0.546,�k�k��,3.9,�L
2022/06/08,22:40,0.540,0.790,0.505,0.970,0.666,0.335,0.571,0.546,�k�k��,3.9,�L
2022/06/08,22:50,0.540,0.789,0.507,0.970,0.668,0.334,0.572,0.546,�k�k��,4.1,�L
2022/06/08,23:00,0.543,0.790,0.505,0.971,0.668,0.335,0.571,0.547,�k�k��,3.9,�L
2022/06/08,23:10,0.540,0.790,0.506,0.968,0.668,0.335,0.572,0.547,�k�k��,4.0,��
2022/06/08,23:20,0.542,0.790,0.506,0.970,0.667,0.335,0.573,0.546,�k�k��,4.5,�L
2022/06/08,23:30,0.542,0.788,0.506,0.970,0.669,0.335,0.572,0.546,�k�k��,4.4,�L
2022/06/08,23:40,0.541,0.791,0.505,0.970,0.668,0.335,0.572,0.547,�k�k��,3.6,�L
2022/06/08,23:50,0.541,0.790,0.505,0.971,0.668,0.334,0.572,0.547,�k�k��,3.9,��
